RH
2 1 2 1 2 1 2 2 3 5 6 6 6 7 7 7 7 6 6 6 6 5 5 4 4 4 3 4 4 4 5 5 6 6 7 7 6 6 6 5 4 3 3 3 2 3 6 11 14 15 18 22 24 26 30 34 36 42 45 56 76 85 88 91 89 88 93 99 99 83 68 78 85 76 74 62 49 51 49 40 32 31 28 17 12 13 13 16
2 2 2 2 2 2 3 3 4 5 6 7 8 8 8 7 7 7 6 6 6 6 5 5 4 4 4 3 4 3 4 5 6 6 6 7 7 7 7 6 5 4 4 3 3 2 5 9 13 16 17 19 22 24 28 34 36 39 43 55 71 79 84 88 89 88 86 92 101 95 75 75 89 85 80 68 53 55 52 42 38 37 28 16 13 12 13 16
2 2 2 2 3 3 4 5 6 6 7 8 9 9 8 8 8 7 7 6 6 6 5 5 4 4 4 3 3 3 3 4 5 5 6 6 7 7 7 7 6 6 5 4 4 3 4 7 11 14 15 16 19 23 26 32 35 37 42 53 70 82 83 81 87 89 84 87 96 100 83 74 90 92 86 73 56 61 56 41 39 38 26 16 13 12 14 16
2 2 2 2 3 4 5 5 7 8 8 9 9 9 9 8 8 7 7 6 6 6 5 5 4 4 4 4 3 3 3 3 4 5 5 6 6 7 7 8 7 7 6 5 4 4 4 5 8 10 13 14 16 19 23 28 31 36 42 52 71 86 85 78 83 88 85 84 88 99 90 77 88 91 92 82 62 66 61 44 43 39 23 14 15 14 16 18
2 2 2 2 2 3 4 5 6 7 9 10 10 10 9 9 8 8 7 7 7 6 5 5 4 4 3 4 3 3 3 3 4 4 5 5 6 6 7 8 8 8 7 6 5 4 4 3 5 7 11 13 12 15 19 24 27 32 39 51 70 81 81 77 77 82 83 80 83 98 96 84 86 85 90 82 61 61 51 37 42 40 24 13 14 16 18 21
2 2 2 2 2 3 4 5 6 7 8 9 10 11 10 10 9 9 8 7 7 6 6 5 4 4 3 4 3 3 3 3 4 4 5 5 5 6 6 8 9 9 8 7 6 5 5 4 4 6 9 10 8 10 15 21 26 30 36 49 66 72 77 79 74 76 80 79 80 91 97 95 89 82 84 74 63 60 40 31 40 38 27 14 13 17 19 22
2 2 2 2 2 3 4 4 6 7 8 9 11 11 11 11 10 10 9 8 7 6 5 5 4 4 3 4 3 3 3 3 3 3 4 4 5 6 6 7 8 9 8 8 8 6 6 5 5 5 6 7 6 7 11 18 25 29 32 43 58 65 74 80 74 72 75 79 83 83 89 100 95 85 84 73 65 57 35 35 42 36 26 16 15 18 20 22
2 2 2 2 2 3 4 5 6 7 8 10 11 11 12 11 11 10 9 8 7 6 6 5 4 4 3 3 3 3 3 3 3 3 3 3 4 5 6 7 8 9 9 9 9 7 7 5 5 4 4 5 4 7 10 16 23 27 27 34 48 60 72 77 72 71 70 73 83 83 83 98 99 91 89 76 63 50 37 41 43 35 25 19 20 20 20 22
2 2 2 2 3 3 4 6 7 8 9 11 12 13 12 11 11 10 9 8 7 6 5 4 4 4 3 3 3 3 3 3 3 2 3 3 3 3 5 7 8 9 10 11 10 9 8 6 5 4 4 4 5 8 11 16 22 25 25 29 39 53 71 78 71 69 67 67 81 88 87 95 99 97 91 76 64 50 42 46 42 35 26 19 23 21 20 21
2 2 2 2 3 4 5 7 8 10 11 12 13 13 13 11 11 10 9 8 7 6 5 4 4 3 3 3 3 3 3 3 3 3 3 3 3 3 3 5 7 8 11 12 12 11 9 7 6 5 5 5 5 8 12 16 20 24 26 28 35 46 64 75 73 69 66 66 77 89 92 95 99 99 90 74 65 55 50 51 43 37 28 19 23 23 22 21
2 2 2 2 3 4 6 7 9 11 12 14 14 14 12 11 10 9 8 7 6 5 4 4 3 3 3 3 3 3 3 3 3 3 3 3 3 3 3 4 6 8 12 13 13 12 9 8 7 6 5 5 6 8 12 14 16 23 27 30 32 39 56 71 75 69 62 61 75 91 95 99 99 98 93 74 65 62 57 55 45 40 32 19 21 26 24 22
2 2 2 2 3 5 6 8 11 12 14 15 15 14 12 11 10 8 7 6 5 4 4 3 3 3 3 3 3 3 3 3 3 3 3 3 3 3 3 3 5 8 12 14 13 11 10 9 8 7 6 5 7 8 11 13 15 22 26 30 30 33 50 67 71 65 59 60 77 94 95 99 100 98 96 79 69 67 60 56 48 42 37 23 19 26 26 23
2 2 2 2 3 5 7 9 12 14 15 16 16 15 12 11 9 7 6 5 4 4 3 3 3 3 3 3 3 3 3 3 3 3 3 3 3 3 3 3 4 6 10 13 13 12 10 11 10 9 7 6 8 8 11 13 17 22 24 28 30 33 47 61 63 58 55 59 73 89 93 98 100 96 95 82 73 70 61 56 50 43 40 28 20 24 27 24
2 2 2 2 3 5 8 10 13 16 17 18 17 15 12 10 8 6 5 4 4 4 3 4 3 3 3 3 3 3 4 3 4 4 3 4 3 3 3 3 4 4 7 10 13 12 12 13 12 10 9 8 8 8 12 15 19 23 24 27 29 34 45 54 57 53 53 60 71 82 90 99 99 95 93 83 76 74 65 58 52 46 40 32 22 21 25 26
2 2 2 2 3 6 9 12 15 17 19 19 17 14 11 9 7 6 5 4 4 4 4 4 3 3 3 3 4 4 4 4 4 4 4 4 4 4 4 4 4 4 5 8 11 13 14 16 14 12 11 10 9 8 10 15 23 26 28 33 34 34 40 46 53 53 52 60 74 82 87 96 100 97 93 86 81 78 72 63 56 51 43 35 26 18 21 27
2 2 2 2 3 7 11 14 18 20 21 21 17 13 10 8 6 5 4 4 4 4 4 4 4 3 3 3 3 4 4 4 5 4 4 4 4 4 4 4 4 4 5 6 9 14 18 19 16 14 13 12 11 9 8 12 22 30 34 42 44 39 37 40 48 55 54 55 70 83 87 92 100 100 94 89 81 75 78 71 60 57 49 39 29 18 19 26
3 2 3 2 3 7 12 17 21 23 23 21 17 13 9 7 6 5 4 5 4 5 4 4 4 3 4 4 3 4 4 4 4 4 4 4 4 4 4 4 4 4 5 5 7 12 19 22 19 16 15 14 12 10 9 12 21 36 45 49 50 47 42 39 47 57 59 55 64 82 89 90 97 101 96 91 81 77 88 83 67 60 52 43 32 20 17 23
3 2 3 2 3 8 15 21 25 26 24 20 16 11 8 7 6 5 5 5 5 5 5 5 4 4 4 4 4 4 4 5 5 4 4 4 3 3 3 3 4 5 5 6 7 10 18 23 22 18 16 15 14 11 11 15 24 40 52 52 54 57 51 45 48 55 60 58 62 78 90 91 94 100 99 94 89 88 95 90 75 62 49 43 35 22 17 20
3 3 3 3 5 9 17 24 28 28 23 19 15 11 8 6 5 5 5 5 5 5 5 5 5 5 6 6 6 5 5 5 5 4 4 3 3 3 3 3 4 5 5 7 8 9 15 22 24 21 18 17 15 13 13 17 25 38 49 53 60 65 62 54 47 50 63 65 62 69 81 89 95 100 100 97 97 95 94 90 83 73 52 40 35 24 17 17
3 3 5 6 7 11 19 28 31 27 21 16 12 9 7 5 5 5 5 5 5 5 6 7 7 7 7 7 7 6 7 6 5 5 4 3 3 2 2 3 4 6 7 7 8 8 11 18 25 25 21 18 17 15 14 18 23 37 52 58 63 67 67 64 53 56 71 70 69 73 74 82 94 100 99 99 100 97 97 94 91 87 63 40 34 27 20 16
3 5 8 12 14 15 22 31 31 25 20 14 10 8 6 5 5 5 6 6 6 7 8 9 9 7 6 6 6 7 7 6 6 5 4 3 2 3 3 3 5 6 7 8 8 9 9 15 25 29 25 19 18 16 15 18 21 36 56 65 69 71 71 72 68 72 78 70 73 81 76 80 94 101 99 100 100 98 100 99 97 95 69 40 34 29 20 16
4 7 11 16 20 21 27 33 30 23 20 15 10 7 6 5 5 6 6 8 9 10 10 10 9 7 6 6 6 6 6 6 6 5 4 3 2 3 3 4 5 6 8 9 9 10 10 15 25 31 27 20 18 17 15 18 22 34 55 68 77 79 76 78 77 81 85 74 71 76 78 82 93 101 100 99 100 99 100 99 100 95 67 41 36 30 21 17
4 8 13 20 24 27 31 32 28 23 18 13 9 7 5 5 5 6 7 9 12 13 12 10 8 7 6 6 6 6 6 6 5 4 4 3 3 3 4 5 6 8 9 10 11 12 12 18 27 31 27 20 17 17 17 18 22 35 52 66 81 86 85 86 79 79 85 81 76 77 82 85 86 94 100 100 100 100 99 99 101 93 66 48 41 32 25 19
4 8 15 22 28 32 33 31 27 22 16 11 8 6 4 5 6 7 8 11 15 16 13 9 7 6 6 7 7 6 6 6 6 6 4 4 4 3 4 6 7 9 10 10 11 12 14 20 27 30 28 23 19 17 17 18 21 34 49 65 84 92 94 93 82 76 81 81 79 79 81 81 81 88 98 100 99 100 100 97 100 96 73 52 43 36 29 22
4 9 16 23 30 35 35 31 26 22 15 10 8 5 5 6 7 8 10 13 17 17 13 9 7 7 7 7 8 7 6 6 6 7 5 4 4 4 5 7 8 9 9 11 12 13 17 20 23 28 30 26 21 17 16 18 23 33 47 66 89 98 97 96 86 77 77 78 77 77 76 75 76 84 95 98 95 97 100 96 95 99 89 65 48 44 37 26
4 9 17 25 33 37 36 31 27 23 17 10 7 5 5 7 7 9 12 16 19 18 13 9 8 8 9 9 9 8 7 7 7 8 7 6 6 6 7 8 9 10 10 12 13 15 18 19 21 27 30 27 23 19 15 18 23 31 43 58 83 101 99 98 95 81 75 73 71 70 69 69 71 77 86 91 93 93 97 99 94 94 98 86 62 53 46 34
5 9 17 26 35 39 37 32 30 26 17 10 8 5 5 7 8 10 15 18 21 18 12 9 8 9 10 11 10 8 8 9 10 11 10 9 9 10 11 12 12 12 13 13 13 16 17 18 22 26 30 30 25 20 16 17 20 27 38 47 72 95 94 96 101 87 75 70 66 67 66 66 70 72 75 82 88 87 88 98 96 89 96 98 79 61 54 43
5 10 17 27 37 41 38 34 32 26 17 12 8 5 6 7 8 12 18 22 22 17 11 10 8 8 10 12 10 8 9 11 12 12 11 11 12 14 17 19 20 17 17 15 13 16 17 19 23 26 30 30 26 20 16 17 19 23 36 49 72 91 88 91 100 95 83 70 65 72 71 68 69 67 69 77 84 84 85 91 94 91 95 102 92 70 59 52
5 9 17 27 37 41 39 37 33 25 18 13 8 5 6 6 10 14 19 24 23 16 13 11 8 7 9 10 10 9 10 12 13 13 11 13 14 17 20 23 25 24 19 15 14 15 17 20 23 27 30 28 24 19 15 19 21 24 45 68 85 94 90 90 98 101 90 69 65 76 73 66 66 63 62 71 81 85 86 86 87 90 92 101 99 77 63 59
5 8 16 27 39 43 41 38 32 26 20 13 8 6 5 7 11 13 18 24 23 18 15 10 7 7 7 8 9 10 11 13 15 14 13 15 16 19 22 23 26 26 19 15 15 15 18 21 25 30 31 27 22 17 16 22 23 29 59 87 96 98 97 94 97 98 84 69 72 78 71 65 63 62 61 64 74 80 83 83 81 84 85 93 97 79 64 63
6 6 12 24 39 46 43 37 32 27 20 13 8 7 6 8 10 13 19 22 23 20 14 8 6 6 6 7 8 9 11 15 19 20 17 17 17 19 21 22 26 26 20 17 17 18 23 28 31 33 31 27 20 17 18 20 23 38 65 85 93 99 100 96 98 99 86 79 84 79 68 64 60 61 63 64 71 75 79 81 80 83 84 89 94 78 64 66
7 6 7 17 35 46 45 39 34 28 19 13 10 8 7 8 9 13 17 20 25 23 14 8 7 6 5 7 7 7 9 13 19 24 28 27 23 20 21 24 29 27 23 21 20 23 32 37 37 34 32 26 20 26 30 22 26 52 72 79 86 96 100 98 97 97 92 89 90 82 71 64 59 61 65 68 73 73 76 80 79 83 84 90 97 82 65 66
8 7 6 10 23 40 48 43 35 28 20 14 12 10 8 8 10 13 15 19 26 23 16 11 7 5 6 6 7 8 7 10 15 21 31 37 31 23 22 27 33 33 28 25 26 33 40 41 40 37 34 28 24 38 46 34 36 65 85 89 89 90 94 96 92 90 92 91 90 88 78 66 63 65 67 70 73 72 74 77 78 80 80 87 99 89 71 69
8 8 8 7 12 27 42 44 38 31 23 17 14 12 9 8 10 13 14 18 24 24 20 14 8 6 6 6 7 8 9 10 12 14 21 31 32 26 23 26 34 38 34 29 33 42 46 46 45 41 38 34 31 42 53 50 54 71 87 93 90 86 88 92 91 89 92 92 90 89 81 71 70 72 70 69 71 73 75 75 76 79 79 88 97 88 77 77
9 9 9 8 7 15 30 41 43 37 27 20 17 14 11 9 10 12 15 18 22 25 23 17 10 6 6 7 8 9 10 10 11 10 11 18 24 24 24 26 32 38 36 35 40 46 51 54 52 46 41 39 38 44 54 60 65 70 78 85 85 87 88 87 91 94 92 92 92 87 79 74 73 75 74 71 70 73 77 77 77 80 86 95 92 75 72 82
10 9 9 9 8 10 20 34 44 41 32 24 20 16 12 10 10 12 14 16 19 22 23 18 11 8 7 8 8 8 9 10 9 8 8 13 20 22 25 29 35 40 38 36 42 51 58 61 59 53 47 43 43 51 59 63 67 69 71 76 81 86 84 78 84 96 97 97 96 87 79 72 71 77 80 79 79 82 83 82 80 83 91 98 93 79 76 82
10 10 10 9 9 10 15 25 38 42 36 29 24 18 14 12 11 12 13 14 17 20 22 21 16 12 8 7 7 6 6 8 7 6 7 13 21 27 31 34 40 48 47 40 39 52 65 67 65 62 56 52 49 56 66 66 66 69 68 67 71 75 75 73 79 92 98 99 95 86 78 72 74 85 86 85 92 95 91 87 85 87 91 94 97 97 94 91
11 11 11 10 10 11 12 17 28 39 40 35 28 21 17 13 12 13 14 16 18 19 21 22 18 13 8 7 8 6 6 7 6 6 10 17 26 34 40 44 46 52 58 54 43 47 63 72 71 65 61 62 58 58 68 69 64 70 74 70 68 68 71 71 74 87 97 99 96 88 80 75 80 88 88 89 97 99 94 91 90 92 92 90 92 97 100 99
14 13 12 11 11 12 11 13 21 32 39 38 32 24 20 17 14 14 15 16 17 18 19 17 13 10 8 7 7 6 6 6 5 7 12 19 29 37 45 51 53 54 58 63 56 48 56 71 77 71 64 68 67 62 68 72 68 70 75 77 75 73 77 73 68 80 94 97 97 91 82 81 85 85 86 90 94 95 94 90 90 91 90 88 88 90 94 98
19 18 16 15 14 13 11 11 16 26 35 38 36 30 25 22 18 17 17 17 17 18 17 14 10 8 7 7 8 7 6 6 5 6 10 16 24 31 40 48 54 57 58 64 65 54 51 63 75 77 71 70 72 68 68 72 74 74 75 79 81 76 79 80 71 73 86 94 94 88 83 87 89 85 87 92 92 94 93 85 83 87 86 85 86 86 88 92
24 25 23 21 18 15 12 12 16 22 28 34 37 35 32 29 26 24 22 20 20 20 18 16 12 8 7 8 9 8 7 6 5 4 7 15 22 28 33 35 39 49 58 66 69 62 55 57 65 75 78 75 73 70 70 71 73 78 79 79 79 76 81 91 87 78 82 91 90 86 87 93 94 87 87 93 94 94 94 86 81 83 83 81 82 83 85 86
25 26 29 29 25 19 16 14 16 18 21 29 37 39 37 35 32 30 27 25 25 24 23 22 17 11 9 10 11 9 8 7 5 5 7 11 19 25 29 29 28 35 48 61 69 69 66 64 63 70 79 80 73 67 71 74 72 76 81 78 77 78 80 89 96 92 87 88 89 87 87 92 95 87 79 83 85 83 87 87 82 80 80 77 74 75 79 83
23 24 30 36 34 27 22 19 18 18 20 27 36 38 37 36 35 33 31 28 28 30 30 27 21 15 12 13 14 13 11 8 7 7 6 6 10 15 19 21 22 25 34 48 60 66 68 70 70 71 76 81 77 67 66 71 74 74 76 74 75 80 80 80 91 100 95 90 92 91 85 86 91 86 73 69 69 67 70 75 78 78 76 72 69 67 68 72
23 22 27 38 41 36 29 24 21 20 20 26 34 36 36 37 37 35 33 30 30 33 33 28 20 17 16 16 16 14 11 10 8 7 7 6 6 7 9 10 10 13 19 30 44 54 59 65 70 73 76 78 79 72 61 64 77 81 77 73 75 80 82 79 87 99 98 91 92 90 84 84 87 84 75 66 61 60 58 58 65 71 70 68 65 62 62 62
22 21 26 37 46 44 37 31 26 22 22 27 33 35 36 39 39 39 36 33 34 35 34 30 24 21 20 19 18 16 12 10 9 8 8 8 7 6 6 6 6 6 7 13 25 39 50 57 62 69 76 77 77 74 65 67 83 90 80 70 70 77 82 81 87 97 97 90 88 86 83 82 81 79 74 66 60 60 57 53 54 59 63 62 57 57 61 64
21 21 25 36 47 49 45 39 32 27 25 27 32 35 37 40 42 42 39 36 37 37 35 33 29 25 23 21 20 19 15 12 10 9 10 10 9 8 7 6 6 5 5 6 10 19 32 45 54 61 69 75 76 74 70 71 82 91 83 70 68 77 82 79 81 91 96 90 83 82 81 79 78 74 70 64 59 57 55 53 52 52 55 55 52 53 57 61
21 20 24 37 47 50 49 45 40 35 30 29 32 35 38 42 43 44 42 39 39 39 39 38 36 31 28 29 29 27 23 18 13 9 11 12 11 9 8 7 6 5 8 13 15 14 15 25 41 52 59 66 73 76 75 73 78 88 90 80 76 82 86 82 78 83 91 91 84 81 78 75 75 73 70 67 62 58 54 52 51 51 51 51 52 53 52 53
22 21 23 35 47 50 50 49 47 43 38 33 32 34 37 42 45 46 45 43 43 44 44 44 44 41 38 38 38 37 35 31 22 11 9 11 10 9 8 6 7 10 14 19 23 20 14 13 24 39 48 55 64 72 76 77 78 84 90 89 85 86 92 92 83 79 84 88 87 84 78 72 72 73 72 70 68 65 61 56 53 52 51 51 51 49 48 50
30 31 26 32 46 52 52 52 52 50 46 40 35 34 37 42 45 47 46 45 46 47 47 47 49 50 50 49 46 44 45 45 37 22 13 12 10 9 8 6 10 17 21 21 21 20 16 13 15 26 37 45 53 63 70 75 77 79 87 94 91 86 92 96 88 82 84 84 84 86 81 72 69 73 76 73 68 69 68 62 57 53 51 51 48 46 47 51
42 46 36 32 44 54 54 53 55 56 54 48 42 38 39 42 44 46 47 47 49 50 50 49 49 50 54 55 52 50 48 48 47 37 23 15 10 8 7 6 12 19 21 21 23 23 21 20 20 25 33 39 44 51 60 66 70 71 78 88 91 87 90 95 91 87 85 82 81 84 85 77 69 71 78 77 68 64 65 64 59 54 51 47 40 39 44 49
47 54 44 36 42 52 56 55 55 57 58 55 49 44 42 43 44 46 48 49 50 53 54 51 48 49 53 54 54 54 49 43 43 39 26 13 8 8 7 6 11 19 20 19 23 28 30 31 32 34 37 40 40 41 47 54 60 64 66 75 87 90 88 89 90 87 84 83 81 82 83 81 72 68 74 80 74 65 61 60 57 51 44 38 32 30 33 38
47 54 48 40 42 50 56 57 56 57 59 58 54 49 46 45 45 47 50 51 53 56 58 56 52 52 55 59 62 61 53 42 38 36 26 14 8 7 6 6 9 16 19 17 18 24 31 34 36 35 35 35 35 35 37 40 46 54 59 65 80 93 92 86 86 88 87 84 82 81 79 78 73 67 67 72 74 70 64 59 57 50 41 34 30 27 27 30
Wind_Speed
12 12 12 11 11 10 10 10 10 10 10 10 10 11 11 11 11 11 12 12 12 12 13 13 14 14 14 14 14 14 14 14 14 14 14 13 13 12 12 12 10 10 10 10 9 8 7 7 8 10 12 12 11 10 10 9 7 6 7 4 0 1 2 2 3 5 5 6 6 4 7 12 10 9 10 8 8 9 7 8 8 5 5 7 7 6 10 12
14 14 13 13 12 11 10 9 9 9 9 9 10 11 11 12 12 12 12 13 13 13 14 14 15 15 15 15 15 15 15 16 16 16 15 15 14 13 14 14 12 12 11 10 10 9 7 8 10 11 13 13 12 12 12 10 9 8 8 6 2 1 2 1 0 1 4 6 7 4 5 10 10 9 10 10 9 8 6 7 7 4 4 7 6 5 9 11
16 15 15 15 14 12 11 10 9 8 9 9 10 11 12 12 13 13 13 13 14 14 15 15 16 16 16 16 16 16 16 17 16 17 17 16 15 15 15 15 14 13 12 12 12 10 8 9 11 13 14 14 13 13 13 12 11 10 9 7 4 1 3 3 2 2 1 5 7 6 4 8 10 10 10 10 9 7 4 5 7 4 4 7 6 5 9 11
16 16 16 16 15 14 12 11 10 10 9 10 11 11 12 13 14 14 14 14 14 15 15 16 17 17 17 17 17 17 17 17 17 17 18 17 17 17 17 17 16 15 14 14 13 12 11 11 12 13 15 15 15 14 14 13 13 11 10 8 5 2 3 4 3 3 2 1 6 7 5 8 12 12 11 10 10 8 6 5 6 3 4 8 7 6 9 10
17 17 17 16 16 15 14 13 12 11 11 11 12 12 13 14 15 15 15 15 15 16 16 17 17 18 18 18 18 18 18 18 18 18 19 19 19 19 19 18 17 17 17 16 15 14 13 13 13 14 16 16 15 15 15 15 14 13 11 10 7 5 5 5 5 4 4 2 5 8 7 10 14 13 12 12 10 9 8 7 7 4 3 6 8 8 10 11
17 18 18 17 17 16 15 14 14 13 13 13 13 14 14 15 16 16 16 16 17 17 17 18 18 18 19 19 19 19 19 18 19 19 19 20 20 20 20 20 19 19 19 18 16 16 16 15 15 16 17 17 16 15 15 15 15 14 13 12 10 8 6 7 8 6 6 5 4 9 10 12 14 15 14 12 10 9 8 8 8 5 4 5 8 8 10 11
18 18 18 18 18 17 17 16 15 15 15 14 14 15 15 16 16 17 18 18 18 18 18 18 19 19 19 19 20 20 20 20 20 20 20 20 21 21 22 22 21 21 21 20 18 18 18 17 17 18 18 19 17 15 15 15 16 16 15 14 12 10 8 8 9 9 8 7 7 8 11 14 16 17 16 12 10 10 9 9 9 7 6 6 8 9 10 11
18 19 19 19 19 18 18 17 16 16 15 15 15 15 16 16 17 18 19 19 19 19 19 19 19 19 19 20 20 20 21 21 21 21 21 21 22 22 23 23 23 23 23 21 20 20 19 19 20 20 20 20 17 15 15 16 17 17 17 16 13 11 10 9 10 11 10 10 11 11 12 16 18 19 18 14 12 11 10 11 10 8 8 7 8 9 10 11
19 19 19 20 19 19 18 17 17 16 15 15 15 16 16 17 18 19 19 20 20 20 20 20 19 19 19 20 20 21 21 21 21 22 22 22 22 23 24 24 25 25 25 23 21 21 21 22 23 22 22 20 17 17 16 16 18 18 18 17 15 13 11 10 11 12 12 11 13 15 15 18 20 22 21 16 14 13 12 11 11 10 9 9 9 9 9 10
20 20 20 20 20 19 18 18 17 16 15 15 15 16 17 18 19 19 20 20 21 21 20 20 20 19 20 20 20 21 21 21 21 22 22 22 23 24 24 25 26 27 26 24 23 23 24 27 26 25 23 20 18 18 17 17 19 19 18 18 16 15 12 11 12 13 14 13 14 15 18 21 22 24 21 15 14 14 13 12 11 10 10 11 11 10 9 10
20 20 21 21 20 20 19 18 17 16 16 16 16 17 18 19 20 20 20 21 21 20 20 20 19 19 19 19 20 21 20 21 21 21 22 22 22 23 24 25 27 27 27 26 26 27 29 30 29 27 25 21 19 19 19 19 20 20 19 18 17 16 14 12 13 14 15 13 12 15 20 23 23 26 21 15 16 15 14 14 13 11 10 11 11 11 10 10
21 21 21 21 21 20 19 18 17 17 16 16 17 18 19 20 20 20 20 20 20 20 20 19 18 18 18 18 18 19 19 20 20 20 21 21 22 22 23 25 26 27 28 29 30 31 32 31 30 29 26 22 21 20 20 20 20 20 19 18 18 17 15 13 13 13 14 12 10 14 18 22 25 26 22 16 17 17 16 16 14 13 11 11 11 11 11 10
21 21 22 22 21 21 20 19 18 17 17 17 18 19 20 20 21 21 21 20 20 19 19 18 17 17 16 15 16 16 17 17 17 18 19 19 19 20 21 23 25 27 29 31 33 34 33 32 31 30 27 24 22 20 20 20 20 19 18 18 18 17 16 14 13 12 13 12 10 12 12 20 25 24 23 19 17 17 17 17 15 13 12 12 11 11 11 11
21 21 22 22 22 21 20 19 18 18 17 18 19 20 21 21 21 21 21 20 19 19 18 17 16 15 14 13 13 13 14 15 14 14 14 15 15 16 18 19 22 26 29 32 34 34 33 32 31 30 29 26 24 21 21 20 19 18 17 17 17 18 17 16 13 13 13 11 10 11 11 19 24 23 23 19 16 17 17 18 16 13 13 13 12 12 12 11
21 22 22 22 22 21 20 20 19 18 18 19 20 21 21 21 21 20 20 19 18 18 17 16 15 14 13 12 11 10 11 12 12 11 11 11 12 13 14 16 18 22 27 31 33 33 32 31 30 31 30 28 25 22 21 20 18 17 16 16 17 18 18 17 14 13 13 11 10 11 12 16 21 22 22 19 17 17 18 19 16 14 13 13 13 13 12 11
22 22 23 23 22 21 21 20 19 18 19 20 21 21 21 21 20 20 19 18 17 17 16 16 14 13 13 12 11 9 8 8 9 10 10 11 11 12 13 14 16 19 23 27 30 32 31 29 30 32 31 28 26 23 22 20 18 16 16 16 17 18 19 18 16 13 14 13 10 10 12 15 18 21 21 19 18 17 18 19 16 15 14 13 14 13 13 12
22 23 23 23 23 22 21 20 19 18 19 20 21 21 21 20 20 19 18 17 16 15 15 14 14 13 12 12 11 9 7 7 8 9 10 12 12 13 14 14 15 16 19 22 25 28 29 29 31 32 31 29 27 23 21 18 16 16 17 18 18 18 19 19 17 15 14 14 11 9 12 16 18 22 23 21 18 17 18 18 16 16 15 14 14 14 14 14
23 23 23 23 23 22 21 19 18 18 19 20 21 21 21 20 20 19 18 16 15 14 13 12 12 12 12 12 12 10 8 8 9 10 11 12 13 14 15 16 16 15 16 17 20 24 27 30 31 33 32 29 26 22 19 18 17 19 21 21 20 19 19 19 18 17 16 14 12 9 11 16 19 23 24 22 18 18 19 18 16 16 16 15 15 15 14 14
23 23 23 23 22 21 20 19 18 19 19 20 21 21 21 20 19 18 17 15 14 12 11 11 11 11 12 12 11 10 10 9 9 10 11 12 14 14 15 16 16 16 15 14 16 20 24 28 31 32 31 28 24 21 21 22 22 23 23 23 22 19 18 19 20 19 17 15 14 11 10 13 19 24 23 21 20 19 20 18 15 14 14 16 16 16 15 14
23 23 23 23 22 21 19 18 18 19 19 20 20 20 20 19 18 16 15 14 13 12 11 10 10 10 11 11 11 11 11 11 11 11 12 13 14 14 14 15 15 16 15 14 15 16 20 26 29 30 29 27 25 25 25 25 25 24 24 25 24 21 19 19 20 19 17 14 12 11 11 12 18 26 24 22 24 22 19 17 14 13 13 16 17 16 15 14
22 23 23 23 22 20 18 17 18 19 19 19 19 19 19 18 17 16 15 14 12 12 11 10 9 10 11 12 12 13 13 13 13 14 14 13 13 14 15 15 16 16 16 15 14 14 17 22 26 28 28 29 29 28 27 27 27 26 25 26 25 22 20 19 19 18 18 17 13 10 10 11 15 24 27 25 26 23 18 15 14 12 13 16 17 17 15 14
22 22 22 22 21 19 17 17 18 19 19 18 18 19 19 18 17 16 15 14 12 12 11 10 10 12 12 12 13 13 13 13 13 14 15 13 12 13 14 15 15 15 15 14 13 12 14 18 23 28 31 32 32 31 30 29 29 28 27 26 25 23 21 19 18 18 18 18 15 12 11 11 11 20 27 26 25 23 17 15 14 12 13 16 17 16 15 14
21 21 21 21 20 18 17 17 19 19 18 18 18 19 19 18 16 16 15 13 13 12 11 11 11 12 13 12 12 11 12 12 12 13 13 13 11 11 13 14 14 14 14 13 13 12 12 17 24 30 32 34 35 34 32 32 31 29 27 26 24 23 21 20 20 19 18 18 16 12 11 11 10 14 22 24 23 22 18 15 15 13 14 17 17 17 15 15
21 20 20 19 19 17 17 18 19 18 18 17 17 17 17 16 15 14 13 12 12 12 11 11 12 12 13 12 11 12 12 11 11 11 11 11 11 10 11 12 13 14 14 13 13 11 12 20 27 31 33 35 37 36 35 34 32 30 28 25 23 22 22 22 22 21 19 19 17 13 10 12 11 10 14 19 20 19 18 17 15 15 16 18 18 17 16 16
20 19 19 18 17 17 17 18 18 18 17 16 15 15 15 14 13 13 12 12 12 11 11 11 12 12 12 12 12 13 12 11 10 9 9 9 9 9 10 11 12 13 13 13 12 10 14 23 28 31 33 35 37 36 35 35 33 31 28 24 23 23 24 23 23 23 21 20 19 15 13 12 10 9 10 14 16 16 16 17 16 15 17 18 17 17 18 17
19 19 18 17 17 17 17 18 19 18 17 15 15 14 13 12 11 11 12 11 12 12 11 11 11 12 13 13 13 13 12 10 10 9 8 8 8 9 10 11 11 12 12 12 11 12 19 24 26 30 33 35 36 36 35 35 34 31 27 26 25 25 24 22 22 24 24 24 22 18 16 14 11 10 10 11 14 16 16 19 19 17 16 17 18 19 20 19
19 18 17 16 16 17 18 18 19 18 17 15 14 13 12 11 11 11 11 11 12 13 11 10 10 11 12 12 13 13 11 10 9 9 9 9 9 9 9 9 11 11 11 11 11 16 21 22 24 29 32 34 34 33 33 34 34 30 27 27 28 27 26 24 24 25 26 27 25 20 17 16 13 13 11 9 12 15 16 19 21 19 17 18 20 22 23 22
18 17 16 16 16 17 17 18 18 18 17 15 14 13 12 11 10 10 10 11 12 12 12 11 10 10 10 10 12 12 11 10 9 9 9 9 9 9 9 9 10 11 10 10 13 18 20 21 25 29 30 31 31 30 32 33 32 29 28 30 30 30 29 28 26 24 25 27 25 20 17 17 16 15 13 9 8 11 13 16 19 19 20 22 21 23 26 26
18 17 16 15 16 16 17 18 18 18 17 15 14 13 12 11 10 9 9 10 11 12 13 12 11 10 9 8 10 10 10 9 9 9 9 9 9 9 10 9 10 10 9 10 14 17 17 20 23 26 27 28 28 29 31 32 32 30 31 32 32 31 30 30 27 23 24 25 22 21 20 19 18 17 14 11 8 9 12 14 17 20 23 24 23 25 28 28
17 16 15 15 15 16 17 17 18 17 17 15 13 12 12 11 10 9 9 9 11 12 12 11 11 11 9 7 8 8 8 8 8 9 9 9 9 9 10 10 9 9 9 10 13 15 16 18 21 23 26 27 27 29 32 34 33 33 34 32 29 29 29 30 29 26 24 21 20 23 23 20 19 17 15 13 10 10 11 12 15 19 23 25 25 27 29 30
17 16 15 15 15 16 17 17 17 17 17 15 13 12 12 11 11 10 9 9 12 13 10 9 11 12 10 8 7 6 7 7 7 9 9 8 9 9 10 10 9 9 9 11 13 14 16 19 20 23 25 26 27 29 31 34 34 34 36 33 29 29 30 29 28 26 22 17 19 23 23 21 19 17 15 13 11 11 11 11 13 16 21 26 28 28 30 31
17 16 15 15 15 16 16 16 17 17 16 15 13 12 12 12 12 12 11 11 12 12 11 9 11 12 11 9 8 7 7 6 5 7 8 9 10 10 10 10 9 10 9 10 12 14 18 20 21 22 24 26 27 28 30 34 35 35 35 33 30 30 31 29 26 23 18 17 19 21 22 22 19 16 14 12 11 12 11 11 12 14 19 26 28 28 30 30
17 16 16 15 15 16 16 16 16 17 17 15 14 12 12 12 12 13 13 12 11 12 12 11 11 13 12 11 10 10 10 8 7 6 6 7 10 12 11 10 9 10 10 10 12 15 20 22 22 22 24 26 28 29 30 33 35 35 33 31 30 31 31 29 27 23 18 18 20 20 21 20 16 15 14 12 11 11 12 11 11 13 18 25 28 28 30 29
17 16 16 16 16 16 16 16 16 16 17 16 14 13 12 12 12 12 14 14 13 13 13 12 11 12 13 12 11 11 11 11 9 8 7 7 10 13 12 9 9 11 11 10 12 17 21 22 22 23 23 25 27 29 31 32 34 34 32 31 30 31 30 27 26 25 21 20 21 22 21 16 14 13 13 13 12 10 10 10 10 11 17 27 33 32 32 29
17 17 16 16 16 16 16 15 15 16 16 16 14 13 12 12 12 12 13 14 14 14 14 14 12 12 12 11 11 10 9 10 9 9 8 8 10 12 12 10 8 10 11 11 13 19 22 22 22 24 24 24 26 28 30 32 33 34 32 31 31 30 29 29 28 27 25 24 24 25 21 15 14 13 11 13 13 10 9 8 8 8 12 25 35 34 33 30
18 17 17 17 17 16 16 15 15 15 15 15 15 13 12 12 12 13 14 15 15 15 15 15 14 13 11 10 9 8 8 9 9 9 9 8 9 11 11 10 8 8 10 11 13 19 22 22 22 24 25 25 25 26 29 31 32 33 33 32 31 30 29 31 31 27 26 27 25 23 20 17 15 12 11 13 12 10 10 8 7 5 6 18 28 30 31 30
18 18 17 17 17 17 16 15 15 15 14 15 14 13 13 13 13 14 15 16 16 17 17 16 16 15 11 9 8 8 8 8 9 10 10 9 9 9 10 9 8 7 8 10 14 19 22 23 23 23 24 25 25 25 28 31 32 33 34 34 33 32 31 32 31 27 26 27 24 21 19 19 16 13 13 15 13 11 12 11 10 8 9 15 20 22 25 29
18 18 18 17 17 17 16 16 15 14 14 15 14 13 13 13 13 14 15 15 16 17 18 16 17 16 13 9 8 8 8 8 9 10 9 8 7 8 8 8 8 8 8 9 13 18 22 24 24 25 25 24 25 26 26 30 34 33 32 34 34 33 32 33 32 27 26 27 24 21 20 20 18 14 14 15 14 13 13 14 13 12 13 14 17 18 19 22
18 18 18 17 17 17 16 16 15 14 14 15 14 13 13 13 13 14 16 16 16 16 16 15 15 15 14 11 9 9 8 7 8 9 8 7 6 5 6 6 6 8 9 9 11 16 22 25 26 27 28 25 25 27 26 27 33 34 31 32 34 32 31 33 33 28 27 29 26 22 21 20 18 16 15 15 15 14 14 15 16 16 15 14 14 16 18 18
18 18 18 18 17 17 17 17 16 14 14 14 13 13 13 12 13 15 16 16 16 15 15 15 14 14 13 12 11 9 7 6 7 8 7 6 5 5 5 5 6 7 8 9 10 14 20 26 28 28 29 28 27 28 29 29 32 33 32 32 33 33 30 31 33 31 29 29 28 24 22 21 18 17 16 15 15 15 15 16 16 17 17 14 13 14 16 17
18 19 18 18 18 17 17 17 17 15 15 15 14 13 12 12 13 15 16 16 15 14 15 15 16 16 16 14 12 10 7 6 7 8 7 5 5 5 5 6 7 7 7 9 10 13 16 24 30 30 29 30 29 29 30 33 35 34 33 34 34 33 30 27 28 30 30 30 30 25 21 20 19 18 17 15 15 15 15 15 15 16 17 16 14 13 14 17
19 19 19 18 18 18 18 17 17 16 16 14 13 12 11 11 13 14 15 17 16 16 16 16 17 18 17 15 13 11 9 8 8 8 7 6 6 7 7 7 9 9 9 10 10 13 16 20 27 31 31 31 32 32 32 34 38 38 36 35 35 34 32 28 26 26 29 29 29 26 22 18 17 17 16 15 14 13 14 15 15 15 15 15 15 14 14 16
20 19 19 19 19 19 19 18 17 17 16 14 12 12 11 12 13 13 14 17 18 18 17 17 17 17 17 16 14 13 12 11 9 8 8 7 7 8 9 10 10 11 12 12 12 14 16 19 24 30 33 33 33 35 35 35 37 39 39 37 36 34 33 32 28 26 26 26 23 21 21 17 13 14 14 13 13 13 13 14 15 15 15 15 15 15 16 16
22 20 19 20 20 20 20 19 18 17 15 14 14 13 12 13 14 14 15 16 18 19 19 18 17 16 15 17 17 16 15 13 11 11 10 9 10 10 11 12 12 13 14 14 15 16 16 18 21 26 32 35 35 37 38 37 37 37 38 37 36 35 34 33 32 30 27 26 21 18 19 18 14 15 15 14 14 15 15 15 16 16 16 15 14 14 15 16
24 22 20 20 21 21 20 20 19 18 16 15 15 15 14 14 14 14 15 17 18 20 21 19 17 15 13 14 16 17 16 14 13 13 12 12 12 12 12 13 13 14 15 16 17 19 19 19 20 22 27 32 35 37 37 36 36 36 38 37 36 37 36 33 33 33 32 28 24 20 20 19 17 17 17 17 17 17 17 17 17 18 18 17 15 15 15 15
25 24 22 20 21 21 21 20 20 19 18 17 17 17 16 15 15 14 15 17 18 20 21 18 15 14 13 13 14 16 16 14 13 13 13 14 14 14 14 14 14 15 16 17 18 19 21 21 20 20 22 25 31 35 36 35 34 35 38 38 37 37 37 34 33 34 34 32 28 25 23 21 20 20 20 20 20 19 19 20 19 19 18 17 16 15 16 16
26 25 23 22 22 22 21 21 21 20 19 19 19 19 18 17 17 16 15 16 18 19 20 17 13 12 13 14 15 15 14 13 12 12 14 15 15 15 16 16 16 17 17 18 18 19 21 22 22 20 19 21 24 30 33 34 34 35 36 38 38 37 35 34 33 34 33 31 29 27 26 24 23 23 23 23 23 23 22 22 21 20 18 16 15 14 15 16
27 27 25 23 23 22 22 22 22 22 21 21 21 20 19 19 20 19 17 16 17 17 18 16 14 12 13 14 15 13 12 12 12 13 15 16 15 15 16 17 17 17 17 18 19 18 20 22 23 21 18 17 19 24 29 32 34 36 36 36 37 37 35 33 34 36 34 31 29 28 27 27 26 26 27 26 25 24 24 23 23 22 19 17 17 17 16 17
28 28 27 25 23 23 23 24 24 24 23 23 23 22 21 21 21 21 20 18 17 16 16 16 15 13 13 14 14 13 12 11 11 13 15 16 15 15 16 15 15 15 16 17 17 15 17 20 22 22 19 16 16 19 24 28 30 34 36 37 38 39 37 35 35 37 36 33 31 30 29 29 29 30 30 29 27 27 26 25 25 24 22 20 19 19 19 20
28 28 27 26 25 24 24 25 25 25 25 25 24 23 23 23 23 23 22 20 18 17 15 15 14 13 13 14 14 14 14 14 13 13 15 15 14 15 15 14 13 13 14 15 13 10 12 16 18 19 18 16 15 15 19 23 27 30 34 36 38 40 40 38 38 38 38 36 34 33 32 31 31 32 33 32 29 27 27 28 28 27 26 25 23 23 23 22
27 27 27 27 26 25 25 25 26 26 26 26 26 25 24 25 25 24 23 23 21 18 16 16 15 14 14 14 14 15 16 15 15 15 16 16 14 14 14 13 12 12 12 12 10 8 9 12 14 15 15 15 15 15 16 18 22 25 28 31 37 42 43 42 41 40 40 39 37 36 35 34 33 34 35 35 32 29 27 28 30 30 30 30 30 29 27 26
27 26 26 27 27 26 26 26 27 27 27 27 27 26 26 26 26 24 24 24 23 20 18 18 17 16 15 15 16 18 18 16 14 14 17 17 14 14 14 13 12 12 11 11 10 8 8 10 13 14 15 15 15 15 16 16 16 18 21 24 31 39 44 44 43 43 42 40 38 38 37 37 36 35 35 37 36 34 31 29 31 32 33 33 32 32 31 29
Wind_Direction
8 5 2 358 352 342 329 315 301 291 287 288 290 290 290 291 291 292 293 292 290 286 283 283 283 282 280 278 273 269 266 262 260 256 252 250 251 248 248 250 247 244 246 252 254 250 238 225 229 234 240 242 238 236 238 239 233 243 256 253 217 9 19 88 149 154 179 217 221 176 164 169 152 134 129 123 112 104 96 93 88 73 82 83 74 76 80 83
10 7 5 2 359 352 343 331 315 300 291 289 289 291 291 290 289 287 287 287 288 285 283 282 281 280 279 277 275 272 268 264 261 259 256 253 250 247 246 247 247 244 242 245 248 247 236 223 223 228 234 238 237 234 235 236 231 235 245 244 239 284 310 333 337 147 153 186 215 212 179 184 168 145 144 138 127 120 117 112 103 97 105 95 88 87 85 86
8 6 4 1 358 353 346 337 323 309 298 293 292 293 293 291 289 287 285 283 283 283 282 281 280 279 278 276 275 274 271 267 263 260 259 257 253 249 247 246 245 245 243 240 241 239 232 225 223 226 231 235 236 234 233 234 231 233 241 241 231 236 291 283 289 313 84 162 198 219 202 182 170 161 158 146 135 131 132 122 113 127 137 109 103 103 94 92
3 2 360 358 355 350 343 334 322 310 299 293 292 292 292 292 292 289 286 283 281 280 280 279 279 278 276 275 274 272 272 269 265 262 260 258 255 251 248 246 244 244 243 240 240 236 230 228 227 230 232 232 234 233 232 232 232 232 237 244 237 214 255 270 262 276 308 147 175 205 214 178 171 172 170 160 151 152 163 142 119 154 167 125 120 118 103 97
358 357 356 354 352 347 342 333 321 310 299 292 290 291 292 293 294 292 289 286 283 281 279 278 277 276 275 274 273 271 270 268 265 263 260 258 255 253 250 247 244 243 242 240 239 238 233 228 228 231 233 232 232 231 229 230 233 233 234 240 243 237 240 259 262 253 266 254 162 186 213 195 182 184 185 178 170 167 171 153 130 157 195 137 130 128 113 104
353 352 351 350 348 346 341 334 324 313 302 294 290 291 293 294 295 293 292 289 286 282 279 277 276 275 274 272 271 270 269 267 264 262 260 258 256 254 252 249 245 243 241 239 237 236 235 229 226 229 232 233 231 228 227 228 231 232 234 236 242 248 252 264 267 261 259 257 187 183 207 211 194 192 196 186 178 177 170 151 136 147 190 151 135 133 119 111
349 348 348 347 345 344 341 335 328 319 308 299 293 292 293 295 296 295 294 291 288 284 280 277 275 274 273 272 271 270 269 267 265 262 261 259 257 256 255 252 248 245 243 240 237 235 235 232 228 228 230 233 233 228 225 226 229 231 233 235 241 250 258 267 269 268 263 260 243 206 203 214 205 198 196 180 175 182 171 154 145 150 173 163 143 138 125 117
345 345 344 343 342 341 339 336 330 322 314 305 299 296 296 296 296 296 294 292 289 285 281 278 275 273 272 271 270 269 268 267 265 263 260 258 255 254 254 252 250 248 245 242 239 238 238 236 233 230 229 230 232 230 224 224 227 230 232 234 238 246 256 265 268 268 266 262 254 233 211 212 211 204 194 178 175 181 175 161 155 160 168 166 156 144 133 125
343 342 341 340 339 338 337 334 330 324 316 309 304 302 301 300 299 298 295 293 290 286 282 278 276 273 271 270 269 268 268 267 266 264 262 259 255 252 250 250 249 248 247 243 240 239 239 239 237 233 231 228 227 230 225 223 228 228 230 233 236 242 251 261 268 268 266 265 258 241 219 212 212 205 192 180 178 179 178 168 162 170 169 167 163 150 141 131
341 340 339 338 337 336 334 331 328 322 316 310 306 306 305 305 304 302 299 296 292 288 285 280 277 274 272 270 269 269 269 267 266 265 263 261 257 254 249 247 247 247 246 243 240 237 237 238 237 234 232 227 223 226 226 224 227 228 227 230 235 240 246 256 266 269 267 266 266 249 220 212 208 198 188 181 180 180 179 174 170 177 172 170 167 155 149 136
340 338 337 336 335 334 331 328 325 320 315 310 308 308 308 308 308 306 303 299 294 290 287 283 279 276 274 274 273 272 271 268 267 265 264 262 259 256 252 248 246 245 243 241 239 237 238 239 238 237 234 228 222 222 224 224 227 228 225 226 231 237 244 252 258 264 265 269 273 251 220 210 204 192 188 185 183 181 180 179 177 180 178 175 171 159 155 145
338 337 336 334 333 331 328 325 322 317 313 309 309 309 310 311 310 309 306 302 297 293 289 285 282 279 278 276 274 274 272 270 269 268 265 263 261 258 254 250 246 243 240 240 239 239 240 240 240 241 239 232 225 222 223 225 228 229 226 225 229 235 243 247 253 259 263 273 268 242 221 210 203 195 192 189 189 182 179 187 183 180 181 178 176 165 160 154
338 336 335 333 332 329 326 323 319 315 312 309 310 311 312 313 313 312 309 305 301 296 292 287 284 282 280 278 276 275 274 272 271 269 268 266 264 261 257 252 247 243 240 239 239 241 242 242 241 242 241 236 229 224 223 224 227 229 228 227 228 234 242 245 252 257 261 275 260 239 228 211 203 199 196 193 192 181 180 194 189 181 181 178 180 173 167 165
337 335 334 332 330 327 324 320 317 314 312 311 312 313 315 315 315 314 311 307 303 298 294 290 287 285 285 286 284 282 281 280 277 273 271 269 266 263 260 255 249 245 242 240 240 241 242 242 243 244 243 240 234 226 224 226 227 229 228 229 229 232 241 245 250 254 257 272 256 240 236 214 201 194 195 193 189 181 184 197 194 186 185 180 183 180 174 172
336 335 333 331 329 326 322 318 315 313 312 313 314 315 316 317 317 315 312 309 305 302 299 295 292 293 298 302 299 294 289 288 286 282 277 272 267 264 260 256 250 245 244 243 242 242 241 241 242 243 244 241 237 230 225 225 227 228 227 230 232 231 237 241 244 251 254 262 253 240 236 218 201 192 194 194 187 183 189 197 193 191 192 185 185 184 178 174
335 334 332 330 328 325 321 318 315 313 313 314 315 317 318 319 318 316 314 311 308 306 304 301 300 304 309 311 309 304 292 285 284 284 281 276 271 266 263 258 252 248 246 244 243 242 241 240 241 243 244 242 239 233 226 225 227 228 228 230 232 230 232 236 240 246 250 255 254 244 236 221 207 202 199 195 188 185 195 200 192 193 199 193 187 186 181 177
335 334 332 330 327 324 320 318 316 315 314 315 317 319 320 321 320 318 317 314 312 311 308 306 308 313 316 315 313 308 294 280 276 277 278 277 275 270 265 262 259 256 252 248 245 242 238 237 239 242 242 240 238 234 229 229 228 227 228 229 229 228 228 230 234 239 246 253 255 253 239 224 216 211 201 194 192 187 197 206 197 194 200 197 191 189 186 182
334 333 332 330 327 324 321 320 319 318 316 317 319 321 323 323 322 320 317 315 314 314 312 312 315 318 321 320 317 311 300 283 274 274 276 277 274 269 265 261 261 262 260 256 248 241 236 234 236 239 240 239 238 236 234 233 229 224 225 226 226 227 226 225 228 233 240 246 249 254 243 229 222 214 201 195 199 192 195 208 207 201 202 198 194 194 190 187
333 333 333 331 329 325 322 322 322 320 319 320 321 324 325 324 322 318 315 315 317 319 321 322 325 326 326 325 320 314 305 292 282 280 282 281 276 269 264 261 260 261 264 261 252 243 237 233 234 237 240 240 238 234 233 231 228 226 225 225 226 226 225 224 224 228 236 242 247 249 247 240 225 215 206 197 202 202 197 205 216 217 211 202 198 195 192 191
332 333 333 333 331 327 325 325 323 321 321 323 324 325 325 323 321 317 316 317 321 326 330 333 334 332 329 326 322 316 310 304 296 290 288 284 278 269 261 257 255 256 259 259 255 249 240 234 233 237 239 237 234 229 228 228 227 227 228 228 228 227 225 225 222 227 237 241 245 244 245 251 227 214 210 199 202 206 198 203 221 230 222 208 203 198 192 194
330 332 334 335 333 331 329 327 323 322 323 324 325 325 325 325 324 322 323 324 327 332 336 339 339 334 331 327 321 316 311 306 298 292 288 282 274 265 257 254 251 252 257 260 261 256 244 236 231 232 232 231 229 225 224 226 225 225 228 229 232 231 228 227 224 228 237 238 241 242 242 254 228 209 207 204 202 201 199 209 221 229 226 213 210 204 193 194
328 331 334 335 336 335 332 326 322 321 322 323 325 327 329 330 330 328 329 330 331 335 338 340 335 330 328 324 319 315 311 306 297 289 284 279 269 260 254 251 251 253 259 263 265 259 246 234 227 226 226 226 224 221 221 223 223 223 226 229 233 234 232 232 227 226 236 239 239 241 239 243 225 206 206 207 203 200 206 217 218 220 221 217 217 213 198 193
325 329 331 334 337 336 331 325 322 322 323 325 329 332 333 333 331 330 330 330 331 333 334 333 328 324 322 322 320 317 314 308 298 287 281 278 268 257 250 246 246 248 255 260 261 258 240 224 221 222 222 221 221 217 217 220 220 220 223 226 232 236 236 237 231 225 232 239 233 229 231 229 224 214 209 208 206 207 213 217 216 212 211 215 220 216 204 196
322 325 328 332 335 334 329 324 322 322 324 327 332 334 335 332 328 327 329 328 327 326 326 327 325 321 323 328 327 327 325 317 308 297 287 279 267 255 246 242 243 245 252 256 257 256 234 221 220 220 220 220 220 217 214 217 217 216 219 222 229 236 237 238 234 225 226 234 226 217 222 220 221 228 216 210 210 211 214 213 212 210 209 213 217 218 212 202
320 321 324 329 331 330 327 324 322 323 325 328 333 336 335 329 325 326 327 324 323 320 320 327 327 324 329 333 332 335 337 330 322 315 304 290 274 259 245 241 244 248 253 255 258 252 229 224 223 222 221 221 221 218 215 216 216 214 214 217 224 232 236 240 241 232 227 230 223 214 220 217 216 233 228 217 213 210 209 207 208 213 215 214 212 217 219 210
317 317 320 325 326 326 324 322 323 325 325 328 333 335 333 327 327 328 325 323 325 323 322 328 330 331 335 334 333 338 341 338 334 330 321 308 291 274 258 247 245 248 250 252 251 235 225 228 228 225 224 223 222 219 216 216 216 212 211 214 220 228 233 238 243 239 235 236 230 220 221 220 219 231 234 223 217 215 207 201 207 218 221 215 207 208 219 218
314 314 317 320 322 322 321 320 322 323 324 328 331 332 331 330 332 330 324 322 325 326 327 331 335 339 338 330 330 339 344 346 341 335 328 316 302 286 272 261 254 248 244 242 233 226 228 232 230 226 226 226 225 222 218 217 218 213 209 213 219 224 227 228 232 235 236 238 236 230 224 220 223 231 235 234 225 222 216 209 212 218 222 220 208 202 212 220
313 313 315 316 318 319 319 319 320 321 323 326 328 330 332 334 334 330 320 319 324 325 328 333 335 342 342 332 332 340 346 349 342 335 329 314 301 291 280 270 265 257 246 236 229 228 232 232 229 227 228 227 226 224 220 219 218 212 209 213 217 221 223 225 229 232 233 234 236 238 230 220 222 227 231 239 234 223 221 220 219 220 226 227 216 203 206 216
313 313 314 314 315 317 318 319 319 320 322 323 325 329 333 333 333 324 314 317 322 323 328 332 332 336 344 341 336 338 341 343 340 334 328 313 301 294 284 276 274 266 250 234 232 234 234 232 230 230 229 227 224 221 219 218 215 210 209 212 213 215 219 225 230 232 233 234 234 238 235 224 222 225 226 232 234 221 218 221 223 223 224 225 218 206 204 213
314 315 315 314 315 317 318 319 319 319 320 321 324 327 328 328 327 319 314 318 317 320 328 330 327 329 337 343 343 337 331 335 337 332 328 320 308 296 285 280 277 266 245 230 233 235 233 231 230 228 226 223 220 219 217 215 212 209 210 210 209 212 216 221 228 232 235 235 231 234 237 230 224 223 224 229 233 230 226 227 229 226 221 218 211 202 202 211
316 317 316 314 315 316 318 319 319 318 318 319 322 323 324 325 323 318 321 323 317 319 327 327 324 324 329 340 348 345 333 330 334 330 328 328 319 304 293 286 275 257 240 231 234 234 227 225 224 223 223 221 217 217 216 213 210 211 213 211 210 217 220 221 225 231 234 230 228 233 236 234 230 225 225 229 232 234 234 235 236 230 222 218 209 197 198 209
319 320 318 314 313 314 318 320 319 318 317 318 320 321 321 322 320 318 321 321 317 318 321 324 325 322 327 337 342 352 352 340 338 339 335 328 320 313 306 297 279 259 241 230 233 229 220 217 218 218 220 218 214 214 214 213 211 212 215 215 213 218 223 224 225 229 229 227 230 233 233 232 230 227 229 229 230 235 238 242 241 229 219 216 208 195 195 206
320 321 319 314 311 312 317 320 319 318 317 316 317 317 317 318 316 315 316 315 315 315 314 320 324 320 324 333 340 352 357 351 350 349 341 321 312 313 314 304 283 265 250 233 227 222 216 215 216 216 217 216 213 211 212 212 212 213 216 218 218 220 224 226 228 230 230 229 233 235 230 227 227 230 233 232 233 237 240 251 251 233 218 211 202 192 193 202
320 321 319 315 311 310 314 318 319 319 316 314 314 313 313 314 312 311 311 310 313 311 307 311 315 315 320 329 343 356 353 348 349 342 332 316 305 309 314 307 282 266 258 239 219 215 214 214 214 215 215 215 213 211 210 211 212 212 214 217 220 223 225 227 231 234 234 232 234 236 230 221 222 231 234 233 237 237 239 253 259 246 226 209 195 187 190 196
320 320 319 316 313 310 312 315 318 317 314 311 310 310 310 310 307 304 303 305 307 307 303 303 305 309 317 327 343 355 344 337 340 335 327 317 306 306 311 308 283 264 258 242 216 210 212 213 214 215 215 214 213 212 210 209 210 211 211 213 219 223 224 226 229 228 227 227 228 232 230 217 213 222 229 232 233 232 234 246 256 257 230 204 191 183 184 190
318 319 317 315 314 312 311 312 314 314 311 308 307 308 307 305 300 298 299 303 303 301 300 298 297 302 312 322 333 342 336 328 329 332 329 321 311 309 312 312 293 265 254 242 219 209 211 214 216 216 217 216 213 210 209 209 209 211 213 212 216 221 222 225 227 221 218 219 221 227 227 218 213 212 216 221 222 224 224 224 229 230 194 184 184 185 186 188
315 315 314 314 313 311 310 310 310 310 309 306 306 307 304 300 299 300 302 304 301 299 299 295 292 296 304 312 317 325 329 326 325 330 331 326 319 316 318 315 301 277 257 243 224 211 210 215 218 218 219 220 216 210 209 211 209 211 215 214 214 217 219 224 228 226 222 218 217 222 219 214 212 207 207 208 205 208 211 210 208 192 173 172 174 182 189 192
311 310 310 312 312 309 308 307 306 307 306 305 305 304 302 300 300 301 300 299 297 297 297 292 287 291 297 300 305 313 321 325 326 328 328 329 326 321 320 315 304 289 269 248 230 217 211 216 221 221 220 223 220 214 213 214 211 210 215 218 215 213 216 223 229 232 230 219 212 213 211 207 206 203 202 199 196 201 203 203 200 186 178 177 172 174 184 193
307 305 306 308 308 306 306 304 303 304 303 303 302 299 297 297 297 296 296 297 299 299 295 288 283 284 288 293 297 303 313 323 326 323 322 326 324 314 309 302 299 290 271 252 236 224 214 217 224 222 220 224 222 218 217 217 215 213 216 218 217 214 213 219 225 229 228 215 203 201 201 199 200 201 202 197 194 200 201 199 198 192 184 182 180 178 183 193
303 302 303 305 304 302 302 302 301 301 300 299 297 293 295 297 297 297 297 299 304 303 296 289 283 278 279 281 283 289 300 309 315 318 319 320 310 294 279 271 276 278 271 258 244 232 218 218 226 226 221 223 224 220 219 219 219 220 220 218 216 216 215 218 222 225 223 208 193 190 191 189 194 200 201 197 195 201 203 198 197 198 194 188 187 185 185 192
300 300 301 302 301 299 298 297 298 298 297 297 297 298 304 305 303 303 301 301 304 302 296 292 284 275 273 272 274 278 279 280 297 313 316 313 301 285 270 265 264 259 259 258 248 241 228 222 227 229 225 223 224 222 221 222 222 222 223 221 217 217 217 218 218 220 220 203 183 175 177 182 191 195 192 190 194 202 207 202 197 199 197 191 191 189 186 192
298 298 299 298 297 296 294 292 293 294 296 299 300 301 305 305 303 303 302 301 301 298 295 293 284 275 272 274 276 277 271 269 282 300 306 303 292 280 272 272 270 257 246 245 242 242 238 229 228 229 229 226 224 224 225 226 225 223 224 224 220 218 219 219 216 217 217 202 179 167 168 178 192 197 194 193 193 203 213 209 201 199 195 190 192 194 190 192
295 296 296 294 292 290 290 288 289 291 296 298 296 294 298 300 300 301 300 299 299 297 294 291 282 273 271 276 276 273 272 273 274 283 293 293 284 276 272 270 272 267 257 247 242 240 240 237 232 229 230 229 227 227 227 228 227 225 226 226 224 222 221 220 220 221 215 201 188 177 170 172 191 207 212 215 213 215 222 218 210 204 196 191 196 202 199 194
293 294 293 291 288 287 286 286 286 288 292 292 289 291 294 295 295 298 299 298 298 296 291 287 283 278 276 278 276 271 271 272 273 279 287 289 287 283 276 272 273 274 269 260 252 247 244 242 237 232 231 232 231 231 230 231 229 227 227 229 227 226 226 223 224 229 222 206 200 196 180 174 190 210 220 228 231 230 231 230 224 218 209 201 203 213 214 206
291 291 290 287 285 284 284 284 285 286 287 285 285 287 289 288 291 294 295 295 295 292 289 287 289 293 292 286 280 274 269 268 274 283 287 290 294 292 284 277 275 275 274 269 261 254 251 247 241 238 235 234 234 234 234 234 232 229 229 230 230 230 230 228 226 230 229 219 214 213 202 190 195 212 224 231 234 233 232 233 231 228 224 218 218 226 232 228
288 289 289 284 281 282 283 283 283 283 282 281 280 283 284 285 286 286 285 288 290 291 293 292 293 298 299 294 288 281 274 268 269 276 284 292 295 292 288 284 281 280 279 274 266 259 256 253 248 244 240 238 237 237 238 237 235 233 230 229 230 231 233 233 229 229 228 224 221 222 220 211 208 218 229 235 238 237 234 232 230 228 228 227 230 235 239 241
284 286 286 283 279 279 281 280 280 280 280 279 279 280 283 284 285 283 280 283 289 295 300 300 297 296 297 298 297 292 286 278 269 264 270 279 284 286 289 287 286 289 291 287 278 266 259 256 254 251 246 243 241 240 241 240 239 237 231 226 226 229 231 232 230 229 226 219 217 222 225 222 219 223 229 232 235 236 235 232 229 226 226 231 242 251 251 250
281 281 282 280 277 276 277 278 278 278 278 278 278 279 282 283 284 284 281 280 286 295 302 305 302 296 293 295 296 294 293 291 280 265 262 268 275 280 282 284 287 294 301 298 287 270 258 254 253 253 251 249 246 243 242 242 242 239 232 226 224 225 228 229 227 229 226 218 214 219 226 228 225 225 228 229 229 229 228 228 226 226 230 239 251 259 261 259
279 277 276 276 274 273 274 275 276 276 276 276 276 278 279 280 280 282 280 279 282 289 301 308 304 300 298 296 294 292 292 291 283 270 263 265 270 273 275 281 288 296 304 303 295 275 257 252 252 253 254 254 252 249 245 245 244 239 233 228 226 225 226 226 225 226 225 220 217 218 223 228 227 225 226 228 227 225 224 224 225 228 236 245 253 258 260 260
277 274 271 270 270 270 272 273 274 274 273 273 273 274 274 275 276 278 280 280 281 285 293 299 298 299 303 302 299 296 291 284 278 271 264 262 265 269 275 283 287 292 303 308 305 287 259 252 252 255 257 257 255 253 250 248 248 243 236 233 230 226 226 225 224 224 223 221 219 218 221 225 227 225 225 227 228 227 227 228 229 232 240 248 253 255 256 257
275 273 269 265 265 267 269 271 272 272 271 271 271 270 270 270 272 275 278 280 282 282 284 287 289 293 300 305 305 301 292 282 274 266 258 258 263 269 277 284 282 285 300 309 309 296 268 259 259 261 265 265 260 257 254 252 252 250 246 242 234 228 227 227 225 223 222 219 219 220 221 224 227 226 225 227 230 231 233 235 237 239 244 250 254 255 254 254
272 272 269 264 263 264 267 268 270 270 269 268 268 267 266 267 269 271 272 275 279 279 276 277 281 288 298 305 305 300 294 287 278 262 252 255 265 272 277 281 278 276 286 298 304 301 281 271 273 272 273 272 266 260 258 255 255 254 252 248 239 230 229 230 227 224 222 219 220 222 222 224 227 227 228 229 232 235 237 240 243 245 247 250 253 254 254 252